Regional Weather Roundup
Issued by NWS Newport/Morehead, NC

Current Version | Previous Version | Graphics & Text | Print | Product List | Glossary On
Versions: 1 2 3 4 5 6 7 8 9 10 11 12 13 14 15 16 17 18 19 20 21 22 23 24 25 26 27 28 29 30 31 32 33 34 35 36 37 38 39 40 41 42 43 44 45 46 47 48 49 50
000 ASUS42 KMHX 271710 RWRMHX WEATHER ROUNDUP FOR EASTERN NORTH CAROLINA NATIONAL WEATHER SERVICE NEWPORT/MOREHEAD CITY NC 1200 PM EST THU NOV 27 2014 NOTE: "FAIR" INDICATES FEW OR NO CLOUDS BELOW 12,000 FEET WITH NO SIGNIFICANT WEATHER AND/OR OBSTRUCTIONS TO VISIBILITY NCZ015>017-031-032-045>047-102-103-271800- NORTH COAST CITY SKY/WX TMP DP RH WIND PRES REMARKS EDENTON MOSUNNY 49 41 74 E3 30.00F ELIZABETH CITY CLOUDY 49 40 71 E5 30.01F KITTY HAWK CLOUDY 49 42 78 CALM 29.98F MANTEO CLOUDY 48 41 75 E5 30.00F $$ NCZ045>047-081-094-103-104-271800- CENTRAL COAST CITY SKY/WX TMP DP RH WIND PRES REMARKS FRISCO PTSUNNY 54 46 74 VRB5 29.97F SWANQUARTER N/A 55 N/A N/A E3 29.91F $$ NCZ095-097-098-100-101-271800- SOUTHERN COAST CITY SKY/WX TMP DP RH WIND PRES REMARKS BEAUFORT SUNNY 56 39 53 W14G22 29.96F CEDAR ISLAND N/A 54 N/A N/A NE7 30.00F JACKSONVILLE SUNNY 53 39 59 W14 29.98F PINEY ISLAND MOSUNNY 59 45 59 SW8 29.94F WILMINGTON SUNNY 54 38 54 W17 30.01F $$ NCZ011>013-027>030-043-044-078>080-089-090>093-098-271800- COASTAL PLAIN CITY SKY/WX TMP DP RH WIND PRES REMARKS AHOSKIE CLOUDY 42 39 91 N5 30.03S CLINTON MOSUNNY 50 41 72 W6 30.02S ELIZABETHTOWN SUNNY 52 37 56 W13 30.02F GOLDSBORO MOSUNNY 49 46 89 W2 29.99S GREENVILLE MOSUNNY 52 43 71 CALM 30.00F HAVELOCK SUNNY 57 37 47 SW16 29.97F KENANSVILLE SUNNY 50 38 65 W12 30.01F KINSTON MOSUNNY 52 41 66 W7 30.00F NEW BERN SUNNY 56 40 55 W10 29.98F RICHLANDS SUNNY 54 37 54 W8 29.99F ROCKY MOUNT PTSUNNY 49 42 77 NW9 30.01F WASHINGTON MOSUNNY 50 42 74 N3 29.98F WHITEVILLE SUNNY 52 36 54 W12G17 30.03S $$ AMZ130-135-150-152-154-156-158-170-250-252-270-ANZ085-086-088-633-658-670-271800- MARINE OBSERVATIONS STATION/POSITION TIME TEMP WIND PRES WAVE SWELL AIR SEA DIR/SP/G HT/PER HT/PER (UTC) (F) (DEG/KT/KT) (MB) (FT/S) (FT/S) CHESAPEAKE LIGHT NOT AVBL 64 E VA BEACH 1700 50 62 230/ 2/ 4 1015.9 6/ 8 5/ 8 DUCK 1700 48 54 140/ 6/ 7 1015.3 2 E DUCK 1700 56 N/A 4/ 9 2/11 10 NE DUCK 1600 58 N/A 5/ 9 2/11 OREGON INLET 1700 51 55 130/ 5/ 9 1015.8 13E OREGON INLT 1600 61 N/A 5/ 9 2/11 HATTERAS CG 1700 53 58 50/ 6/ 9 1015.4 DIAMOND BUOY 1700 59 250/ 8/ 16 1014.7 5/ 8 5/ 8 17 S OCRACOKE NOT AVBL CAPE LOOKOUT NOT AVBL BEAUFORT LAB 1700 55 57 250/ 9/ 16 1013.8 30 SE NEW RIVER 1700 55 66 270/ 21/ 25 1015.5 5/ 6 2/ 8 5 SE WRIGHTSVLE 1600 51 59 270/ 16/ 19 1016.4 225 S CAPE HAT 1629 68 73 260/ 21/ 25 1017.4 7/ 7 3/ 9 41 SE CHARLESTON 1700 55 74 280/ 23/ 29 1018.2 8/ 6 2/15 $$

USA.gov is the U.S. government's official web portal to all federal, state and local government web resources and services.